Monett, MO

12:24 AM CDT on August 20, 2017 (GMT -0500)
Monett

Weather History for KHFJ - March, 2012

Change the Weather History Date:

Thursday, March 22, 2012

  Actual Average (KJLN) Record (KJLN)
Temperature  
Mean Temperature 50 °F -  
Max Temperature 57 °F 61 °F 90 °F (1995)
Min Temperature 44 °F 38 °F 11 °F (1955)
Degree Days  
Heating Degree Days 14    
Moisture  
Dew Point 47 °F    
Average Humidity 86    
Maximum Humidity 100    
Minimum Humidity 63    
Precipitation  
Precipitation 0.14 in - - ()
Sea Level Pressure  
Sea Level Pressure 29.88 in    
Wind  
Wind Speed 11 mph (SE)    
Max Wind Speed 23 mph    
Max Gust Speed 34 mph    
Visibility 10 miles    
Events Rain    
Averages and records for this station are not official NWS values.
T = Trace of Precipitation, MM = Missing Value Source: NWS Daily Summary

Daily Weather History Graph

Daily Weather History Graph

Search for Another Location

Airport or City:

Trip Planner

Search our weather history database for the weather conditions in past years. The results will help you decide how hot, cold, wet, or windy it might be!

Date:

Astronomy

Mar. 22, 2012 Rise Set
Actual Time 7:15 AM CDT 7:30 PM CDT
Civil Twilight 6:49 AM CDT 7:56 PM CDT
Nautical Twilight 6:19 AM CDT 8:26 PM CDT
Astronomical Twilight 5:48 AM CDT 8:57 PM CDT
Moon 6:56 AM CDT (3/22) 7:53 PM CDT (3/22)
Length of Visible Light 13h 06m
Length of Day
12h 14m
New Moon, 0% of the Moon is Illuminated
Mar 22
New Moon
Mar 30
First Quarter
Apr 6
Full
Apr 13
Last Quarter
Apr 21
New

Hourly Weather History & Observations

Time (CDT) Temp. Windchill Dew Point Humidity Pressure Visibility Wind Dir Wind Speed Gust Speed Precip Events Conditions
12:15 AM 48.2 °F - 46.4 °F 93% 29.88 in 10.0 mi SE 8.1 mph - N/A   Scattered Clouds
12:35 AM 48.2 °F - 46.4 °F 93% 29.88 in 10.0 mi SE 8.1 mph - N/A   Scattered Clouds
12:55 AM 46.4 °F 42.4 °F 46.4 °F 100% 29.88 in 10.0 mi SE 8.1 mph - N/A   Scattered Clouds
1:15 AM 46.4 °F 42.9 °F 46.4 °F 100% 29.88 in 10.0 mi SE 6.9 mph - N/A   Clear
1:35 AM 46.4 °F 42.9 °F 46.4 °F 100% 29.88 in 10.0 mi SE 6.9 mph - N/A   Clear
2:15 AM 46.4 °F 43.5 °F 46.4 °F 100% 29.89 in 10.0 mi ESE 5.8 mph - N/A   Clear
2:35 AM 46.4 °F 43.5 °F 44.6 °F 93% 29.88 in 10.0 mi ESE 5.8 mph - N/A   Clear
3:15 AM 46.4 °F 41.9 °F 44.6 °F 93% 29.88 in 10.0 mi ESE 9.2 mph - N/A   Clear
3:35 AM 46.4 °F 41.9 °F 44.6 °F 93% 29.88 in 10.0 mi ESE 9.2 mph - N/A   Clear
3:55 AM 46.4 °F 41.5 °F 44.6 °F 93% 29.88 in 10.0 mi ESE 10.4 mph - N/A   Clear
4:15 AM 46.4 °F 41.5 °F 44.6 °F 93% 29.87 in 10.0 mi ESE 10.4 mph - N/A   Clear
4:35 AM 46.4 °F 41.1 °F 44.6 °F 93% 29.88 in 10.0 mi East 11.5 mph 16.1 mph N/A   Clear
4:55 AM 46.4 °F 41.5 °F 44.6 °F 93% 29.88 in 10.0 mi ESE 10.4 mph - N/A   Clear
5:15 AM 46.4 °F 41.1 °F 44.6 °F 93% 29.88 in 10.0 mi ESE 11.5 mph - N/A   Clear
5:35 AM 46.4 °F 41.1 °F 44.6 °F 93% 29.89 in 10.0 mi ESE 11.5 mph - N/A   Clear
5:55 AM 46.4 °F 41.5 °F 44.6 °F 93% 29.88 in 10.0 mi East 10.4 mph - N/A   Clear
6:15 AM 46.4 °F 41.9 °F 44.6 °F 93% 29.89 in 10.0 mi East 9.2 mph - N/A   Clear
6:35 AM 44.6 °F 39.2 °F 44.6 °F 100% 29.89 in 10.0 mi ESE 10.4 mph - N/A   Clear
6:55 AM 44.6 °F 39.2 °F 44.6 °F 100% 29.90 in 10.0 mi ESE 10.4 mph - N/A   Clear
7:15 AM 44.6 °F 39.7 °F 44.6 °F 100% 29.91 in 10.0 mi ESE 9.2 mph - N/A   Clear
7:35 AM 44.6 °F 40.2 °F 44.6 °F 100% 29.91 in 10.0 mi East 8.1 mph - N/A   Clear
7:55 AM 44.6 °F 39.7 °F 44.6 °F 100% 29.92 in 10.0 mi ESE 9.2 mph - N/A   Clear
8:15 AM 46.4 °F 41.1 °F 46.4 °F 100% 29.92 in 10.0 mi ESE 11.5 mph - N/A   Scattered Clouds
8:35 AM 48.2 °F - 46.4 °F 93% 29.93 in 10.0 mi ESE 13.8 mph 18.4 mph N/A   Scattered Clouds
8:55 AM 48.2 °F - 46.4 °F 93% 29.92 in 10.0 mi ESE 13.8 mph - N/A   Scattered Clouds
9:15 AM 50.0 °F - 46.4 °F 87% 29.93 in 10.0 mi ESE 12.7 mph - N/A   Scattered Clouds
9:35 AM 51.8 °F - 46.4 °F 82% 29.93 in 10.0 mi ESE 13.8 mph 21.9 mph N/A   Scattered Clouds
10:15 AM 51.8 °F - 48.2 °F 88% 29.93 in 10.0 mi ESE 18.4 mph 25.3 mph N/A   Mostly Cloudy
10:35 AM 51.8 °F - 48.2 °F 88% 29.94 in 10.0 mi SE 12.7 mph 23.0 mph N/A   Mostly Cloudy
10:55 AM 53.6 °F - 50.0 °F 88% 29.96 in 10.0 mi SE 12.7 mph 18.4 mph N/A   Mostly Cloudy
11:15 AM 55.4 °F - 50.0 °F 82% 29.95 in 10.0 mi SE 12.7 mph 18.4 mph N/A   Mostly Cloudy
11:35 AM 55.4 °F - 50.0 °F 82% 29.93 in 10.0 mi ESE 13.8 mph 21.9 mph N/A   Mostly Cloudy
11:55 AM 55.4 °F - 50.0 °F 82% 29.91 in 10.0 mi ESE 18.4 mph - N/A   Mostly Cloudy
12:15 PM 57.2 °F - 50.0 °F 77% 29.89 in 10.0 mi ESE 18.4 mph 21.9 mph N/A   Overcast
12:35 PM 57.2 °F - 50.0 °F 77% 29.89 in 10.0 mi ESE 19.6 mph 25.3 mph N/A   Overcast
12:55 PM 57.2 °F - 50.0 °F 77% 29.90 in 10.0 mi East 18.4 mph 24.2 mph N/A   Overcast
1:15 PM 55.4 °F - 50.0 °F 82% 29.90 in 7.0 mi SE 12.7 mph 23.0 mph 0.01 in Rain Rain
1:35 PM 55.4 °F - 50.0 °F 82% 29.89 in 7.0 mi SE 23.0 mph 34.5 mph 0.07 in Rain Light Rain
1:55 PM 55.4 °F - 48.2 °F 77% 29.88 in 10.0 mi SSE 13.8 mph 23.0 mph 0.07 in   Mostly Cloudy
2:15 PM 57.2 °F - 44.6 °F 63% 29.86 in 10.0 mi SSE 15.0 mph 26.5 mph N/A Rain Light Rain
2:35 PM 57.2 °F - 44.6 °F 63% 29.86 in 10.0 mi SSE 13.8 mph 21.9 mph N/A   Drizzle
2:55 PM 53.6 °F - 48.2 °F 82% 29.84 in 10.0 mi ESE 13.8 mph 25.3 mph N/A Rain Light Rain
3:15 PM 55.4 °F - 50.0 °F 82% 29.84 in 10.0 mi ESE 12.7 mph 17.3 mph 0.01 in Rain Light Rain
3:35 PM 55.4 °F - 50.0 °F 82% 29.84 in 10.0 mi SE 13.8 mph - 0.01 in Rain Light Rain
3:55 PM 53.6 °F - 50.0 °F 88% 29.84 in 7.0 mi SE 15.0 mph - 0.02 in Rain Light Rain
4:15 PM 53.6 °F - 50.0 °F 88% 29.84 in 10.0 mi SE 16.1 mph 26.5 mph 0.01 in Rain Light Rain
4:35 PM 53.6 °F - 48.2 °F 82% 29.84 in 10.0 mi SSE 20.7 mph 28.8 mph 0.01 in Rain Light Rain
4:55 PM 53.6 °F - 48.2 °F 82% 29.84 in 10.0 mi SSE 13.8 mph 25.3 mph 0.01 in Rain Light Rain
5:15 PM 53.6 °F - 46.4 °F 77% 29.84 in 10.0 mi SSE 18.4 mph 28.8 mph N/A   Overcast
5:35 PM 53.6 °F - 46.4 °F 77% 29.84 in 10.0 mi SSE 19.6 mph 29.9 mph N/A   Overcast
5:55 PM 53.6 °F - 46.4 °F 77% 29.84 in 10.0 mi SE 15.0 mph 20.7 mph N/A   Overcast
6:15 PM 53.6 °F - 46.4 °F 77% 29.84 in 10.0 mi SE 15.0 mph 21.9 mph N/A   Overcast
6:35 PM 53.6 °F - 46.4 °F 77% 29.84 in 10.0 mi SE 13.8 mph 24.2 mph N/A Rain Light Rain
6:55 PM 53.6 °F - 46.4 °F 77% 29.84 in 10.0 mi ESE 13.8 mph - N/A   Mostly Cloudy
7:15 PM 53.6 °F - 46.4 °F 77% 29.83 in 10.0 mi ESE 15.0 mph - N/A   Mostly Cloudy
7:35 PM 53.6 °F - 46.4 °F 77% 29.83 in 10.0 mi SE 20.7 mph 31.1 mph N/A   Mostly Cloudy
7:55 PM 51.8 °F - 44.6 °F 76% 29.82 in 10.0 mi SE 16.1 mph 20.7 mph N/A   Mostly Cloudy
8:15 PM 51.8 °F - 46.4 °F 82% 29.81 in 10.0 mi SE 10.4 mph 17.3 mph N/A   Scattered Clouds
8:35 PM 51.8 °F - 46.4 °F 82% 29.81 in 10.0 mi SE 11.5 mph - N/A   Mostly Cloudy
8:55 PM 51.8 °F - 46.4 °F 82% 29.82 in 10.0 mi SE 9.2 mph - N/A   Overcast
9:15 PM 51.8 °F - 46.4 °F 82% 29.84 in 7.0 mi South 5.8 mph 17.3 mph 0.02 in Rain Rain
9:35 PM 51.8 °F - 46.4 °F 82% 29.85 in 10.0 mi South 12.7 mph - 0.04 in Rain Rain
9:55 PM 50.0 °F - 48.2 °F 94% 29.85 in 10.0 mi South 10.4 mph - 0.06 in Rain Light Rain
10:15 PM 50.0 °F - 48.2 °F 94% 29.86 in 10.0 mi SSW 10.4 mph - N/A Rain Rain
10:35 PM 50.0 °F - 48.2 °F 94% 29.87 in 10.0 mi SW 5.8 mph - N/A Rain Light Rain
10:55 PM 50.0 °F - 46.4 °F 87% 29.87 in 10.0 mi SW 5.8 mph - N/A   Mostly Cloudy
11:15 PM 48.2 °F - 46.4 °F 93% 29.87 in 10.0 mi South 4.6 mph - N/A Thunderstorm Mostly Cloudy
11:35 PM 48.2 °F - 46.4 °F 93% 29.88 in 10.0 mi South 4.6 mph - N/A   Overcast
11:55 PM 48.2 °F - 46.4 °F 93% 29.88 in 10.0 mi SSW 3.5 mph - N/A   Overcast